Terminal Aerodrome Forecast
Issued by NWS Sterling, VA

Home | Current Version | Previous Version | Text Only | Print | Product List | Glossary On
Versions: 1 2 3 4 5 6 7 8 9 10 11 12 13 14 15 16 17 18
775
FTUS41 KLWX 110520
TAFCHO
TAF
KCHO 110520Z 1106/1206 28008KT P6SM FEW100
     FM111600 29011G18KT P6SM FEW250
     FM112200 29005KT P6SM FEW250=

USA.gov is the U.S. government's official web portal to all federal, state and local government web resources and services.